Location: Laguna de la Cañada del Gallo
(40.3974°N, 5.2096°W)
Time: 20:28:16
(UTC+00:00)

STARLINK-3233 - Visible Passes

Search period start: 19 September 2024 00:00
Search period end: 29 September 2024 00:00
Orbit: 539 x 540 km, 53.2° (Epoch: 19 September)

Date Brightness Start Highest point End Pass type
(mag) Time Alt. Az. Time Alt. Az. Time Alt. Az.
19 Sep ? 04:10:17 12° SSE 04:12:24 18° SE 04:15:10 10° E visible
20 Sep ? 04:02:32 20° SSE 04:03:35 23° SE 04:06:49 10° ENE visible
21 Sep ? 03:54:40 29° SE 03:54:48 29° SE 03:58:22 10° ENE visible
21 Sep ? 05:30:09 10° WSW 05:34:01 41° NNW 05:37:54 10° NE visible
22 Sep ? 03:46:44 35° ESE 03:46:44 35° ESE 03:49:51 10° ENE visible
22 Sep ? 05:22:12 13° W 05:25:24 34° NNW 05:29:10 10° NE visible
23 Sep ? 03:38:44 34° E 03:38:44 34° E 03:41:18 10° ENE visible
23 Sep ? 05:14:12 15° W 05:16:50 29° NNW 05:20:27 10° NE visible
24 Sep ? 03:30:41 28° ENE 03:30:41 28° ENE 03:32:43 10° NE visible
24 Sep ? 05:06:08 17° WNW 05:08:18 25° NNW 05:11:45 10° NNE visible
25 Sep ? 03:22:35 22° NE 03:22:35 22° NE 03:24:09 10° NE visible
25 Sep ? 04:58:03 17° WNW 04:59:49 22° NNW 05:03:05 10° NNE visible
26 Sep ? 03:14:28 18° NE 03:14:28 18° NE 03:15:34 10° NE visible
26 Sep ? 04:49:56 17° NW 04:51:22 20° NNW 04:54:25 10° NNE visible
27 Sep ? 03:06:21 14° NE 03:06:21 14° NE 03:06:59 10° NE visible
27 Sep ? 04:41:49 16° NW 04:42:58 18° NNW 04:45:48 10° NNE visible
28 Sep ? 02:58:13 11° NE 02:58:13 11° NE 02:58:24 10° NE visible
28 Sep ? 04:33:41 15° NNW 04:34:35 16° NNW 04:37:14 10° NNE visible
